Find Starlink 5469

NORAD ID: 55649 Int'l Des: 2023-021 Owner: SPXS Country: US Constellation: starlink operational
LEOCIRCULAR

Live-Position

3D-Globus wird geladen...

Über Starlink 5469

Beschreibung wird geladen...

Nächste Überflüge

Passes for default location (London). Set your location on the main map for personalized predictions.

Höhenverlauf

Loading altitude history...

Zweizeiliger Elementsatz

1 55649U 23021X 26134.11449963 -.00000064 00000-0 24281-5 0 9993
2 55649 70.0000 19.4088 0002757 270.0878 89.9965 14.98332749178597
Epoch: 14. Mai 2026 • Age: 11 hours

Aktueller Status

Höhe 579.2 km
Geschwindigkeit 7.57 km/s
Subsatellitenpunkt -22.45°S, 135.59°E
Startdatum 17. Feb. 2023
Alter 3.2 years
Typ internet

Technische Details

Klassifizierung Payload
Masse 305.00 kg
Trockenmasse 290.00 kg
Gesamtmasse 305.00 kg
Länge 0.20 m
Durchmesser 2.80 m
Spannweite 9.00 m
Form Box + pan
Hersteller SPXS
Bus-Typ Starlink
Phasenstatus In Orbit
Besitzer/Staat SPXS/US

Most Searched